Terminal Aerodrome Forecast
Issued by NWS

Home | Current Version | Previous Version | Text Only | Print | Product List | Glossary On
Versions: 1 2 3 4 5 6 7 8 9 10 11 12
000
FTUS41 KCAR 032325
TAFPQI
TAF
KPQI 032325Z 0400/0424 13005KT P6SM SKC
     FM041500 20010KT P6SM FEW250
     FM041800 22015G25KT P6SM SCT250
      AMD LTD TO CLD VIS AND WIND=

USA.gov is the U.S. government's official web portal to all federal, state and local government web resources and services.